Weather in Sejong City

South Korea     36°30′43″N   127°14′29″E
temp.,
°C
wind,
m/s
gust,
m/s
humid.,
%
clouds,
%
prec.,
mm/h
press.,
hPa
HPBL,
m
20 april, tue
tue2000:00+8ssw22720 0.0 102046
03:00+7ssw11783 0.0 102016
06:00+6ssw11804 0.0 102110
09:00+14ne11494 0.0 1022352
12:00+20n22285 0.0 1021857
15:00+23nne2225100 0.0 10191243
18:00+21nnw233686 0.0 1019131
21:00+14n2248100 0.0 102244
21 april, wed
wed2100:00+13ene0045100 0.0 102223
03:00+12nne1147100 0.0 102211
06:00+11nne0051100 0.0 102310
09:00+18ne1241100 0.0 1023298
12:00+25ese1228100 0.0 10211012
15:00+27s2321100 0.0 10192142
18:00+23w2237100 0.0 1019273
21:00+18w1251100 0.0 102160
22 april, thu
thu2200:00+16nne2453100 0.0 1022112
03:00+14n1148100 0.0 102151
06:00+15n1147100 0.0 102119
09:00+19ene3741100 0.0 1020313
12:00+24ese7824100 0.0 10171676
15:00+25se5724100 0.0 10172540
18:00+21sw4637100 0.0 1017488
21:00+20ese51030100 0.0 1019504
23 april, fri
fri2300:00+17ne2548100 0.0 1019118
03:00+14ne3760100 0.1 1020314
06:00+14e41063100 0.2 1020462
09:00+14e41069100 0.4 1021560
12:00+16ese5955100 0.1 1020814
15:00+17ese4950100 0.1 1019900
18:00+17e4847100 0.0 1020504
21:00+15e51146100 0.0 1021559
24 april, sat
sat2400:00+14e4952100 0.0 1022465
03:00+13ene3755100 0.0 1021320
06:00+13ne2557100 0.0 1022220
09:00+15e23518 0.0 1022365
12:00+20nne22305 0.0 10211429
15:00+22n3428100 0.0 10192286
18:00+18nnw3448100 0.0 1019446
21:00+14w0061100 0.0 101946